Time,TemperatureF,DewpointF,PressureIn,WindDirection,WindDirectionDegrees,WindSpeedMPH,WindSpeedGustMPH,Humidity,HourlyPrecipIn,Conditions,Clouds,dailyrainin,SoftwareType,DateUTC
2013-09-06 00:01:00,58.2,50.0,30.26,ESE,112,4.0,7.0,75,0.00,,,0.00,Rainwise IP-100,2013-09-06 04:01:00,
2013-09-06 00:06:00,57.5,50.0,30.26,East,90,4.0,7.0,77,0.00,,,0.00,Rainwise IP-100,2013-09-06 04:06:00,
2013-09-06 00:11:00,57.1,50.0,30.26,ENE,67,6.5,7.0,78,0.00,,,0.00,Rainwise IP-100,2013-09-06 04:11:00,
2013-09-06 00:16:00,57.0,50.0,30.27,East,90,4.7,7.0,78,0.00,,,0.00,Rainwise IP-100,2013-09-06 04:16:00,
2013-09-06 00:21:00,57.0,50.0,30.27,East,90,6.3,7.0,79,0.00,,,0.00,Rainwise IP-100,2013-09-06 04:21:00,
2013-09-06 00:26:00,57.0,50.0,30.27,East,90,4.0,7.0,79,0.00,,,0.00,Rainwise IP-100,2013-09-06 04:26:00,
2013-09-06 00:31:00,56.9,50.0,30.27,East,90,6.1,6.1,79,0.00,,,0.00,Rainwise IP-100,2013-09-06 04:31:00,
2013-09-06 00:36:00,57.0,51.0,30.26,ESE,112,5.4,7.0,80,0.00,,,0.00,Rainwise IP-100,2013-09-06 04:36:00,
2013-09-06 00:41:00,57.1,51.0,30.26,ENE,67,4.4,7.0,80,0.00,,,0.00,Rainwise IP-100,2013-09-06 04:41:00,
2013-09-06 00:46:00,57.2,50.0,30.26,ESE,112,6.1,8.0,79,0.00,,,0.00,Rainwise IP-100,2013-09-06 04:46:00,
2013-09-06 00:51:00,57.3,50.0,30.26,East,90,5.6,8.0,79,0.00,,,0.00,Rainwise IP-100,2013-09-06 04:51:00,
2013-09-06 00:56:00,57.4,51.0,30.26,East,90,5.8,7.0,79,0.00,,,0.00,Rainwise IP-100,2013-09-06 04:56:00,
2013-09-06 01:01:00,57.2,51.0,30.26,ESE,112,5.1,6.0,80,0.00,,,0.00,Rainwise IP-100,2013-09-06 05:01:00,
2013-09-06 01:06:00,56.9,52.0,30.26,ESE,112,4.9,7.0,82,0.00,,,0.00,Rainwise IP-100,2013-09-06 05:06:00,
2013-09-06 01:11:00,56.7,51.0,30.26,East,90,5.1,6.0,83,0.00,,,0.00,Rainwise IP-100,2013-09-06 05:11:00,
2013-09-06 01:16:00,56.7,52.0,30.26,ESE,112,5.1,7.0,85,0.00,,,0.00,Rainwise IP-100,2013-09-06 05:16:00,
2013-09-06 01:21:00,56.6,52.0,30.26,ESE,112,5.4,7.0,85,0.00,,,0.00,Rainwise IP-100,2013-09-06 05:21:00,
2013-09-06 01:26:00,56.5,53.0,30.26,ESE,112,6.1,7.0,86,0.00,,,0.00,Rainwise IP-100,2013-09-06 05:26:00,
2013-09-06 01:31:00,56.4,53.0,30.26,ESE,112,4.9,8.0,86,0.00,,,0.00,Rainwise IP-100,2013-09-06 05:31:00,
2013-09-06 01:36:00,56.6,53.0,30.26,ESE,112,4.4,7.0,86,0.00,,,0.00,Rainwise IP-100,2013-09-06 05:36:00,
2013-09-06 01:41:00,56.6,52.0,30.26,ESE,112,4.9,7.0,85,0.00,,,0.00,Rainwise IP-100,2013-09-06 05:41:00,
2013-09-06 01:46:00,56.7,52.0,30.26,ESE,112,4.4,8.0,85,0.00,,,0.00,Rainwise IP-100,2013-09-06 05:46:00,
2013-09-06 01:51:00,56.9,52.0,30.26,ESE,112,4.7,8.0,84,0.00,,,0.00,Rainwise IP-100,2013-09-06 05:51:00,
2013-09-06 01:56:00,57.2,52.0,30.26,ESE,112,6.3,10.0,82,0.00,,,0.00,Rainwise IP-100,2013-09-06 05:56:00,
2013-09-06 02:01:00,57.7,51.0,30.26,ESE,112,5.4,10.0,80,0.00,,,0.00,Rainwise IP-100,2013-09-06 06:01:00,
2013-09-06 02:06:00,57.8,51.0,30.26,ESE,112,8.2,9.0,80,0.00,,,0.00,Rainwise IP-100,2013-09-06 06:06:00,
2013-09-06 02:11:00,57.7,51.0,30.26,ESE,112,10.0,11.0,80,0.00,,,0.00,Rainwise IP-100,2013-09-06 06:11:00,
2013-09-06 02:16:00,57.8,50.0,30.26,ESE,112,6.8,12.0,77,0.00,,,0.00,Rainwise IP-100,2013-09-06 06:16:00,
2013-09-06 02:21:00,58.1,51.0,30.26,ESE,112,7.2,10.0,77,0.00,,,0.00,Rainwise IP-100,2013-09-06 06:21:00,
2013-09-06 02:26:00,58.0,51.0,30.26,East,90,6.8,11.0,78,0.00,,,0.00,Rainwise IP-100,2013-09-06 06:26:00,
2013-09-06 02:31:00,57.7,51.0,30.26,East,90,9.1,9.1,79,0.00,,,0.00,Rainwise IP-100,2013-09-06 06:31:00,
2013-09-06 02:36:00,57.4,51.0,30.26,ESE,112,4.9,11.0,80,0.00,,,0.00,Rainwise IP-100,2013-09-06 06:36:00,
2013-09-06 02:41:00,57.2,50.0,30.26,ESE,112,5.6,9.0,79,0.00,,,0.00,Rainwise IP-100,2013-09-06 06:41:00,
2013-09-06 02:46:00,56.9,51.0,30.26,ESE,112,8.6,9.0,80,0.00,,,0.00,Rainwise IP-100,2013-09-06 06:46:00,
2013-09-06 02:51:00,56.6,50.0,30.26,ESE,112,6.3,10.0,79,0.00,,,0.00,Rainwise IP-100,2013-09-06 06:51:00,
2013-09-06 02:56:00,56.5,50.0,30.26,ESE,112,9.6,11.0,79,0.00,,,0.00,Rainwise IP-100,2013-09-06 06:56:00,
2013-09-06 03:01:00,56.5,50.0,30.26,ESE,112,8.2,14.0,78,0.00,,,0.00,Rainwise IP-100,2013-09-06 07:01:00,
2013-09-06 03:06:00,56.7,49.0,30.26,ESE,112,9.3,13.0,76,0.00,,,0.00,Rainwise IP-100,2013-09-06 07:06:00,
2013-09-06 03:11:00,56.7,49.0,30.26,ESE,112,8.6,12.0,76,0.00,,,0.00,Rainwise IP-100,2013-09-06 07:11:00,
2013-09-06 03:16:00,56.6,49.0,30.26,ESE,112,11.0,11.0,76,0.00,,,0.00,Rainwise IP-100,2013-09-06 07:16:00,
2013-09-06 03:21:00,56.4,49.0,30.26,ESE,112,6.8,12.0,76,0.00,,,0.00,Rainwise IP-100,2013-09-06 07:21:00,
2013-09-06 03:26:00,56.3,48.0,30.26,ESE,112,6.5,11.0,76,0.00,,,0.00,Rainwise IP-100,2013-09-06 07:26:00,
2013-09-06 03:31:00,56.1,49.0,30.26,ESE,112,7.9,10.0,77,0.00,,,0.00,Rainwise IP-100,2013-09-06 07:31:00,
2013-09-06 03:36:00,55.9,49.0,30.26,ESE,112,5.6,9.0,78,0.00,,,0.00,Rainwise IP-100,2013-09-06 07:36:00,
2013-09-06 03:41:00,55.6,49.0,30.26,ESE,112,7.5,11.0,78,0.00,,,0.00,Rainwise IP-100,2013-09-06 07:41:00,
2013-09-06 03:46:00,55.5,49.0,30.26,ESE,112,5.1,11.0,78,0.00,,,0.00,Rainwise IP-100,2013-09-06 07:46:00,
2013-09-06 03:51:00,55.4,48.0,30.26,ENE,67,9.1,11.0,78,0.00,,,0.00,Rainwise IP-100,2013-09-06 07:51:00,
2013-09-06 03:56:00,55.3,48.0,30.26,ESE,112,10.0,11.0,78,0.00,,,0.00,Rainwise IP-100,2013-09-06 07:56:00,
2013-09-06 04:01:00,55.2,48.0,30.26,East,90,8.6,12.0,78,0.00,,,0.00,Rainwise IP-100,2013-09-06 08:01:00,
2013-09-06 04:06:00,55.2,48.0,30.25,ESE,112,5.8,11.0,78,0.00,,,0.00,Rainwise IP-100,2013-09-06 08:06:00,
2013-09-06 04:11:00,55.0,48.0,30.25,ESE,112,6.8,11.0,78,0.00,,,0.00,Rainwise IP-100,2013-09-06 08:11:00,
2013-09-06 04:16:00,54.8,48.0,30.25,SE,135,8.2,11.0,78,0.00,,,0.00,Rainwise IP-100,2013-09-06 08:16:00,
2013-09-06 04:21:00,54.6,48.0,30.25,East,90,8.9,13.0,78,0.00,,,0.00,Rainwise IP-100,2013-09-06 08:21:00,
2013-09-06 04:26:00,54.5,48.0,30.25,ESE,112,9.8,11.0,78,0.00,,,0.00,Rainwise IP-100,2013-09-06 08:26:00,
2013-09-06 04:31:00,54.5,48.0,30.25,SE,135,8.6,13.0,78,0.00,,,0.00,Rainwise IP-100,2013-09-06 08:31:00,
2013-09-06 04:36:00,54.6,47.0,30.25,ESE,112,10.3,17.0,77,0.00,,,0.00,Rainwise IP-100,2013-09-06 08:36:00,
2013-09-06 04:41:00,54.7,47.0,30.25,ESE,112,9.6,17.0,77,0.00,,,0.00,Rainwise IP-100,2013-09-06 08:41:00,
2013-09-06 04:46:00,55.0,47.0,30.25,ESE,112,8.9,16.0,76,0.00,,,0.00,Rainwise IP-100,2013-09-06 08:46:00,
2013-09-06 04:51:00,55.2,47.0,30.25,ESE,112,13.3,16.0,75,0.00,,,0.00,Rainwise IP-100,2013-09-06 08:51:00,
2013-09-06 04:56:00,55.4,47.0,30.25,ESE,112,8.4,14.0,75,0.00,,,0.00,Rainwise IP-100,2013-09-06 08:56:00,
2013-09-06 05:01:00,55.5,48.0,30.25,ESE,112,7.9,11.0,75,0.00,,,0.00,Rainwise IP-100,2013-09-06 09:01:00,
2013-09-06 05:06:00,55.6,48.0,30.25,ESE,112,9.3,13.0,75,0.00,,,0.00,Rainwise IP-100,2013-09-06 09:06:00,
2013-09-06 05:11:00,55.7,48.0,30.25,ESE,112,3.5,14.0,75,0.00,,,0.00,Rainwise IP-100,2013-09-06 09:11:00,
2013-09-06 05:16:00,55.8,48.0,30.25,ESE,112,5.6,12.0,75,0.00,,,0.00,Rainwise IP-100,2013-09-06 09:16:00,
2013-09-06 05:21:00,55.9,48.0,30.26,ESE,112,6.8,13.0,75,0.00,,,0.00,Rainwise IP-100,2013-09-06 09:21:00,
2013-09-06 05:26:00,56.0,48.0,30.26,South,180,4.7,12.0,75,0.00,,,0.00,Rainwise IP-100,2013-09-06 09:26:00,
2013-09-06 05:31:00,56.0,48.0,30.26,ESE,112,4.4,11.0,75,0.00,,,0.00,Rainwise IP-100,2013-09-06 09:31:00,
2013-09-06 05:36:00,56.1,48.0,30.26,SE,135,5.6,9.0,75,0.00,,,0.00,Rainwise IP-100,2013-09-06 09:36:00,
2013-09-06 05:41:00,56.1,48.0,30.26,SE,135,5.6,8.0,75,0.00,,,0.00,Rainwise IP-100,2013-09-06 09:41:00,
2013-09-06 05:46:00,56.2,48.0,30.26,ESE,112,5.1,10.0,76,0.00,,,0.00,Rainwise IP-100,2013-09-06 09:46:00,
2013-09-06 05:51:00,56.2,48.0,30.26,SSE,157,3.5,13.0,76,0.00,,,0.00,Rainwise IP-100,2013-09-06 09:51:00,
2013-09-06 05:56:00,56.3,48.0,30.26,SE,135,7.0,13.0,76,0.00,,,0.00,Rainwise IP-100,2013-09-06 09:56:00,
2013-09-06 06:01:00,56.3,48.0,30.26,ESE,112,4.7,12.0,76,0.00,,,0.00,Rainwise IP-100,2013-09-06 10:01:00,
2013-09-06 06:06:00,56.4,49.0,30.26,SSE,157,8.9,12.0,75,0.00,,,0.00,Rainwise IP-100,2013-09-06 10:06:00,
2013-09-06 06:11:00,56.4,49.0,30.26,ESE,112,10.7,14.0,75,0.00,,,0.00,Rainwise IP-100,2013-09-06 10:11:00,
2013-09-06 06:16:00,56.4,49.0,30.26,ESE,112,8.2,15.0,75,0.00,,,0.00,Rainwise IP-100,2013-09-06 10:16:00,
2013-09-06 06:21:00,56.4,49.0,30.26,SSE,157,4.9,15.0,76,0.00,,,0.00,Rainwise IP-100,2013-09-06 10:21:00,
2013-09-06 06:26:00,56.4,49.0,30.26,SE,135,7.5,11.0,76,0.00,,,0.00,Rainwise IP-100,2013-09-06 10:26:00,
2013-09-06 06:31:00,56.4,49.0,30.26,SE,135,4.0,13.0,76,0.00,,,0.00,Rainwise IP-100,2013-09-06 10:31:00,
2013-09-06 06:36:00,56.3,48.0,30.27,SE,135,6.3,11.0,76,0.00,,,0.00,Rainwise IP-100,2013-09-06 10:36:00,
2013-09-06 06:41:00,56.3,48.0,30.27,ESE,112,5.1,11.0,76,0.00,,,0.00,Rainwise IP-100,2013-09-06 10:41:00,
2013-09-06 06:46:00,56.3,48.0,30.27,ESE,112,6.3,11.0,76,0.00,,,0.00,Rainwise IP-100,2013-09-06 10:46:00,
2013-09-06 06:51:00,56.3,48.0,30.26,South,180,7.9,8.0,76,0.00,,,0.00,Rainwise IP-100,2013-09-06 10:51:00,
2013-09-06 06:56:00,56.4,49.0,30.26,SE,135,8.6,10.0,75,0.00,,,0.00,Rainwise IP-100,2013-09-06 10:56:00,
2013-09-06 07:01:00,56.5,49.0,30.27,SE,135,5.8,10.0,75,0.00,,,0.00,Rainwise IP-100,2013-09-06 11:01:00,
2013-09-06 07:06:00,56.5,49.0,30.27,ESE,112,5.4,12.0,75,0.00,,,0.00,Rainwise IP-100,2013-09-06 11:06:00,
2013-09-06 07:11:00,56.3,48.0,30.27,ESE,112,5.1,8.0,75,0.00,,,0.00,Rainwise IP-100,2013-09-06 11:11:00,
2013-09-06 07:16:00,56.3,48.0,30.27,SSE,157,3.5,9.0,75,0.00,,,0.00,Rainwise IP-100,2013-09-06 11:16:00,
2013-09-06 07:21:00,56.2,48.0,30.27,SE,135,6.3,10.0,75,0.00,,,0.00,Rainwise IP-100,2013-09-06 11:21:00,
2013-09-06 07:26:00,56.1,48.0,30.27,SE,135,4.2,9.0,75,0.00,,,0.00,Rainwise IP-100,2013-09-06 11:26:00,
2013-09-06 07:31:00,56.0,48.0,30.27,SE,135,5.6,10.0,76,0.00,,,0.00,Rainwise IP-100,2013-09-06 11:31:00,
2013-09-06 07:36:00,55.9,48.0,30.27,SE,135,5.8,9.0,76,0.00,,,0.00,Rainwise IP-100,2013-09-06 11:36:00,
2013-09-06 07:41:00,55.7,49.0,30.27,SSE,157,5.8,9.0,77,0.00,,,0.00,Rainwise IP-100,2013-09-06 11:41:00,
2013-09-06 07:46:00,55.5,49.0,30.27,South,180,6.3,11.0,77,0.00,,,0.00,Rainwise IP-100,2013-09-06 11:46:00,
2013-09-06 07:51:00,55.5,49.0,30.27,SE,135,5.1,11.0,78,0.00,,,0.00,Rainwise IP-100,2013-09-06 11:51:00,
2013-09-06 07:56:00,55.5,49.0,30.27,ESE,112,6.8,9.0,78,0.00,,,0.00,Rainwise IP-100,2013-09-06 11:56:00,
2013-09-06 08:01:00,55.6,49.0,30.27,ESE,112,4.7,9.0,78,0.00,,,0.00,Rainwise IP-100,2013-09-06 12:01:00,
2013-09-06 08:06:00,55.8,49.0,30.27,SSE,157,8.2,9.0,78,0.00,,,0.00,Rainwise IP-100,2013-09-06 12:06:00,
2013-09-06 08:11:00,56.0,49.0,30.27,SSE,157,7.5,9.0,77,0.00,,,0.00,Rainwise IP-100,2013-09-06 12:11:00,
2013-09-06 08:16:00,56.1,49.0,30.27,SE,135,3.7,7.0,77,0.00,,,0.00,Rainwise IP-100,2013-09-06 12:16:00,
2013-09-06 08:21:00,56.4,49.0,30.27,SE,135,6.3,10.0,76,0.00,,,0.00,Rainwise IP-100,2013-09-06 12:21:00,
2013-09-06 08:26:00,56.7,49.0,30.27,ESE,112,5.1,8.0,76,0.00,,,0.00,Rainwise IP-100,2013-09-06 12:26:00,
2013-09-06 08:31:00,57.0,50.0,30.27,South,180,6.1,7.0,76,0.00,,,0.00,Rainwise IP-100,2013-09-06 12:31:00,
2013-09-06 08:36:00,57.3,49.0,30.27,SE,135,5.1,12.0,75,0.00,,,0.00,Rainwise IP-100,2013-09-06 12:36:00,
2013-09-06 08:41:00,57.7,50.0,30.27,SSE,157,3.0,9.0,75,0.00,,,0.00,Rainwise IP-100,2013-09-06 12:41:00,
2013-09-06 08:46:00,57.9,50.0,30.27,SSW,202,4.4,9.0,75,0.00,,,0.00,Rainwise IP-100,2013-09-06 12:46:00,
2013-09-06 08:51:00,58.1,50.0,30.27,SE,135,3.5,9.0,75,0.00,,,0.00,Rainwise IP-100,2013-09-06 12:51:00,
2013-09-06 08:56:00,58.3,50.0,30.27,South,180,5.4,8.0,74,0.00,,,0.00,Rainwise IP-100,2013-09-06 12:56:00,
2013-09-06 09:01:00,58.6,50.0,30.27,SSW,202,2.3,8.0,74,0.00,,,0.00,Rainwise IP-100,2013-09-06 13:01:00,
2013-09-06 09:06:00,58.9,50.0,30.27,SSE,157,4.2,8.0,73,0.00,,,0.00,Rainwise IP-100,2013-09-06 13:06:00,
2013-09-06 09:11:00,59.2,50.0,30.27,SSW,202,5.4,9.0,73,0.00,,,0.00,Rainwise IP-100,2013-09-06 13:11:00,
2013-09-06 09:16:00,59.2,50.0,30.27,SSW,202,5.4,5.4,73,0.00,,,0.00,Rainwise IP-100,2013-09-06 13:16:00,
2013-09-06 09:51:00,59.8,50.0,30.27,South,180,4.0,0.0,73,0.00,,,0.00,Rainwise IP-100,2013-09-06 13:51:00,
2013-09-06 09:56:00,59.8,51.0,30.27,SW,225,7.0,7.0,74,0.00,,,0.00,Rainwise IP-100,2013-09-06 13:56:00,
2013-09-06 10:01:00,59.9,51.0,30.27,West,270,4.2,7.0,74,0.00,,,0.00,Rainwise IP-100,2013-09-06 14:01:00,
2013-09-06 10:06:00,60.1,51.0,30.26,SSW,202,5.6,5.6,73,0.00,,,0.00,Rainwise IP-100,2013-09-06 14:06:00,
2013-09-06 10:11:00,60.3,51.0,30.26,SSE,157,4.0,6.0,73,0.00,,,0.00,Rainwise IP-100,2013-09-06 14:11:00,
2013-09-06 10:16:00,60.6,52.0,30.26,WSW,247,4.9,8.0,73,0.00,,,0.00,Rainwise IP-100,2013-09-06 14:16:00,
2013-09-06 10:21:00,60.7,52.0,30.26,SSW,202,5.8,8.0,73,0.00,,,0.00,Rainwise IP-100,2013-09-06 14:21:00,
2013-09-06 10:26:00,60.8,52.0,30.26,SW,225,2.8,8.0,74,0.00,,,0.00,Rainwise IP-100,2013-09-06 14:26:00,
2013-09-06 10:31:00,61.0,53.0,30.26,SSW,202,5.8,8.0,74,0.00,,,0.00,Rainwise IP-100,2013-09-06 14:31:00,
2013-09-06 10:36:00,61.3,53.0,30.26,South,180,2.1,7.0,74,0.00,,,0.00,Rainwise IP-100,2013-09-06 14:36:00,
2013-09-06 10:41:00,61.4,53.0,30.26,SW,225,4.4,7.0,74,0.00,,,0.00,Rainwise IP-100,2013-09-06 14:41:00,
2013-09-06 10:46:00,61.1,53.0,30.26,WSW,247,3.5,8.0,74,0.00,,,0.00,Rainwise IP-100,2013-09-06 14:46:00,
2013-09-06 10:51:00,60.8,53.0,30.26,SSW,202,4.2,6.0,75,0.00,,,0.00,Rainwise IP-100,2013-09-06 14:51:00,
2013-09-06 10:56:00,61.1,53.0,30.26,SW,225,3.5,6.0,75,0.00,,,0.00,Rainwise IP-100,2013-09-06 14:56:00,
2013-09-06 11:01:00,61.3,53.0,30.25,South,180,0.0,8.0,75,0.00,,,0.00,Rainwise IP-100,2013-09-06 15:01:00,
2013-09-06 11:06:00,61.4,53.0,30.25,WSW,247,4.9,7.0,75,0.00,,,0.00,Rainwise IP-100,2013-09-06 15:06:00,
2013-09-06 11:11:00,61.1,53.0,30.25,WSW,247,4.2,9.0,75,0.00,,,0.00,Rainwise IP-100,2013-09-06 15:11:00,
2013-09-06 11:16:00,60.8,53.0,30.26,WSW,247,5.6,7.0,77,0.00,,,0.00,Rainwise IP-100,2013-09-06 15:16:00,
2013-09-06 11:21:00,61.2,54.0,30.25,SW,225,4.0,7.0,77,0.00,,,0.00,Rainwise IP-100,2013-09-06 15:21:00,
2013-09-06 11:26:00,61.9,54.0,30.25,SW,225,4.2,6.0,77,0.00,,,0.00,Rainwise IP-100,2013-09-06 15:26:00,
2013-09-06 11:31:00,62.1,54.0,30.24,SW,225,6.3,8.0,75,0.00,,,0.00,Rainwise IP-100,2013-09-06 15:31:00,
2013-09-06 11:36:00,62.2,53.0,30.25,SW,225,4.9,7.0,74,0.00,,,0.00,Rainwise IP-100,2013-09-06 15:36:00,
2013-09-06 11:41:00,62.4,54.0,30.25,SW,225,3.7,7.0,74,0.00,,,0.00,Rainwise IP-100,2013-09-06 15:41:00,
2013-09-06 11:46:00,62.9,54.0,30.25,SW,225,0.0,4.0,74,0.00,,,0.00,Rainwise IP-100,2013-09-06 15:46:00,
2013-09-06 11:51:00,63.4,54.0,30.25,SW,225,7.9,7.9,73,0.00,,,0.00,Rainwise IP-100,2013-09-06 15:51:00,
2013-09-06 11:56:00,63.4,54.0,30.25,South,180,2.6,7.0,73,0.00,,,0.00,Rainwise IP-100,2013-09-06 15:56:00,
2013-09-06 12:01:00,63.6,54.0,30.25,WSW,247,4.9,5.0,73,0.00,,,0.00,Rainwise IP-100,2013-09-06 16:01:00,
2013-09-06 12:06:00,63.2,54.0,30.24,SW,225,4.4,6.0,73,0.00,,,0.00,Rainwise IP-100,2013-09-06 16:06:00,
2013-09-06 12:11:00,63.0,54.0,30.24,WSW,247,5.4,5.4,74,0.00,,,0.00,Rainwise IP-100,2013-09-06 16:11:00,
2013-09-06 12:16:00,63.0,54.0,30.24,WSW,247,4.0,6.0,74,0.00,,,0.00,Rainwise IP-100,2013-09-06 16:16:00,
2013-09-06 12:21:00,62.6,54.0,30.25,WSW,247,1.9,5.0,74,0.00,,,0.00,Rainwise IP-100,2013-09-06 16:21:00,
2013-09-06 12:26:00,63.2,55.0,30.24,SW,225,4.4,4.4,75,0.00,,,0.00,Rainwise IP-100,2013-09-06 16:26:00,
2013-09-06 12:31:00,63.4,55.0,30.24,West,270,2.6,5.0,75,0.00,,,0.00,Rainwise IP-100,2013-09-06 16:31:00,
2013-09-06 12:36:00,63.4,55.0,30.24,WNW,292,0.0,6.0,75,0.00,,,0.00,Rainwise IP-100,2013-09-06 16:36:00,
2013-09-06 12:41:00,63.8,55.0,30.24,WSW,247,5.4,8.0,75,0.00,,,0.00,Rainwise IP-100,2013-09-06 16:41:00,
2013-09-06 12:46:00,64.0,55.0,30.23,WSW,247,5.4,6.0,74,0.00,,,0.00,Rainwise IP-100,2013-09-06 16:46:00,
2013-09-06 12:51:00,64.8,56.0,30.24,WSW,247,1.2,7.0,74,0.00,,,0.00,Rainwise IP-100,2013-09-06 16:51:00,
2013-09-06 12:56:00,65.1,56.0,30.24,WSW,247,4.9,6.0,73,0.00,,,0.00,Rainwise IP-100,2013-09-06 16:56:00,
2013-09-06 13:01:00,65.3,56.0,30.23,WSW,247,5.6,7.0,73,0.00,,,0.00,Rainwise IP-100,2013-09-06 17:01:00,
2013-09-06 13:06:00,65.0,56.0,30.23,SW,225,4.4,6.0,73,0.00,,,0.00,Rainwise IP-100,2013-09-06 17:06:00,
2013-09-06 13:11:00,65.1,56.0,30.23,WSW,247,3.7,7.0,72,0.00,,,0.00,Rainwise IP-100,2013-09-06 17:11:00,
2013-09-06 13:16:00,66.1,56.0,30.23,West,270,4.7,6.0,71,0.00,,,0.00,Rainwise IP-100,2013-09-06 17:16:00,
2013-09-06 13:21:00,66.8,56.0,30.23,West,270,3.7,6.0,69,0.00,,,0.00,Rainwise IP-100,2013-09-06 17:21:00,
2013-09-06 13:26:00,67.0,56.0,30.23,SW,225,4.0,5.0,68,0.00,,,0.00,Rainwise IP-100,2013-09-06 17:26:00,
2013-09-06 13:31:00,67.3,56.0,30.22,SW,225,4.4,7.0,67,0.00,,,0.00,Rainwise IP-100,2013-09-06 17:31:00,
2013-09-06 13:36:00,67.6,56.0,30.22,SSW,202,0.0,7.0,66,0.00,,,0.00,Rainwise IP-100,2013-09-06 17:36:00,
2013-09-06 13:41:00,68.0,56.0,30.22,SW,225,5.1,7.0,66,0.00,,,0.00,Rainwise IP-100,2013-09-06 17:41:00,
2013-09-06 13:46:00,68.4,56.0,30.21,West,270,3.7,7.0,66,0.00,,,0.00,Rainwise IP-100,2013-09-06 17:46:00,
2013-09-06 13:51:00,68.7,56.0,30.21,SW,225,4.4,5.0,65,0.00,,,0.00,Rainwise IP-100,2013-09-06 17:51:00,
2013-09-06 13:56:00,68.7,56.0,30.21,WSW,247,5.4,6.0,64,0.00,,,0.00,Rainwise IP-100,2013-09-06 17:56:00,
2013-09-06 14:01:00,69.3,56.0,30.20,SSW,202,4.0,7.0,62,0.00,,,0.00,Rainwise IP-100,2013-09-06 18:01:00,
2013-09-06 14:06:00,70.1,55.0,30.20,WSW,247,3.0,7.0,60,0.00,,,0.00,Rainwise IP-100,2013-09-06 18:06:00,
2013-09-06 14:11:00,70.3,55.0,30.21,ESE,112,0.0,8.0,59,0.00,,,0.00,Rainwise IP-100,2013-09-06 18:11:00,
2013-09-06 14:16:00,70.3,54.0,30.20,SW,225,8.4,9.0,57,0.00,,,0.00,Rainwise IP-100,2013-09-06 18:16:00,
2013-09-06 14:21:00,70.5,53.0,30.20,SSW,202,7.5,8.0,54,0.00,,,0.00,Rainwise IP-100,2013-09-06 18:21:00,
2013-09-06 14:26:00,70.9,52.0,30.20,SSW,202,1.6,9.0,51,0.00,,,0.00,Rainwise IP-100,2013-09-06 18:26:00,
2013-09-06 14:31:00,71.4,51.0,30.20,NNW,337,0.0,11.0,49,0.00,,,0.00,Rainwise IP-100,2013-09-06 18:31:00,
2013-09-06 14:36:00,72.1,50.0,30.19,SW,225,6.3,8.0,46,0.00,,,0.00,Rainwise IP-100,2013-09-06 18:36:00,
2013-09-06 14:41:00,72.1,47.0,30.19,SSW,202,9.6,10.0,42,0.00,,,0.00,Rainwise IP-100,2013-09-06 18:41:00,
2013-09-06 14:46:00,72.1,47.0,30.18,SW,225,6.8,9.0,41,0.00,,,0.00,Rainwise IP-100,2013-09-06 18:46:00,
2013-09-06 14:51:00,72.0,47.0,30.18,WSW,247,4.2,10.0,42,0.00,,,0.00,Rainwise IP-100,2013-09-06 18:51:00,
2013-09-06 14:56:00,72.0,48.0,30.18,SW,225,3.0,10.0,43,0.00,,,0.00,Rainwise IP-100,2013-09-06 18:56:00,
2013-09-06 15:01:00,72.2,48.0,30.18,SSW,202,2.3,9.0,42,0.00,,,0.00,Rainwise IP-100,2013-09-06 19:01:00,
2013-09-06 15:06:00,72.4,48.0,30.18,WSW,247,3.5,8.0,42,0.00,,,0.00,Rainwise IP-100,2013-09-06 19:06:00,
2013-09-06 15:11:00,72.8,50.0,30.17,WSW,247,6.1,9.0,45,0.00,,,0.00,Rainwise IP-100,2013-09-06 19:11:00,
2013-09-06 15:16:00,71.9,50.0,30.17,SW,225,7.5,10.0,47,0.00,,,0.00,Rainwise IP-100,2013-09-06 19:16:00,
2013-09-06 15:21:00,71.4,50.0,30.17,WSW,247,7.2,11.0,48,0.00,,,0.00,Rainwise IP-100,2013-09-06 19:21:00,
2013-09-06 15:26:00,71.4,50.0,30.17,SW,225,9.3,11.0,48,0.00,,,0.00,Rainwise IP-100,2013-09-06 19:26:00,
2013-09-06 15:31:00,71.5,50.0,30.16,SW,225,7.9,11.0,47,0.00,,,0.00,Rainwise IP-100,2013-09-06 19:31:00,
2013-09-06 15:36:00,71.6,50.0,30.16,WSW,247,6.8,10.0,46,0.00,,,0.00,Rainwise IP-100,2013-09-06 19:36:00,
2013-09-06 15:41:00,71.7,50.0,30.16,West,270,5.6,9.0,48,0.00,,,0.00,Rainwise IP-100,2013-09-06 19:41:00,
2013-09-06 15:46:00,72.0,50.0,30.16,SSW,202,6.1,11.0,47,0.00,,,0.00,Rainwise IP-100,2013-09-06 19:46:00,
2013-09-06 15:51:00,72.2,50.0,30.15,SSW,202,3.7,10.0,46,0.00,,,0.00,Rainwise IP-100,2013-09-06 19:51:00,
2013-09-06 15:56:00,72.9,50.0,30.15,WSW,247,8.2,12.0,44,0.00,,,0.00,Rainwise IP-100,2013-09-06 19:56:00,
2013-09-06 16:01:00,73.1,48.0,30.15,WSW,247,6.8,8.0,42,0.00,,,0.00,Rainwise IP-100,2013-09-06 20:01:00,
2013-09-06 16:06:00,73.2,48.0,30.15,WSW,247,4.0,8.0,41,0.00,,,0.00,Rainwise IP-100,2013-09-06 20:06:00,
2013-09-06 16:11:00,73.4,48.0,30.15,WSW,247,3.7,6.0,41,0.00,,,0.00,Rainwise IP-100,2013-09-06 20:11:00,
2013-09-06 16:16:00,73.3,48.0,30.15,WSW,247,6.5,7.0,41,0.00,,,0.00,Rainwise IP-100,2013-09-06 20:16:00,
2013-09-06 16:21:00,73.1,48.0,30.16,SSW,202,4.4,7.0,41,0.00,,,0.00,Rainwise IP-100,2013-09-06 20:21:00,
2013-09-06 16:26:00,73.1,48.0,30.16,SSW,202,4.4,4.4,41,0.00,,,0.00,Rainwise IP-100,2013-09-06 20:26:00,
2013-09-06 16:31:00,73.6,48.0,30.16,SW,225,5.1,5.1,40,0.00,,,0.00,Rainwise IP-100,2013-09-06 20:31:00,
2013-09-06 16:36:00,73.3,47.0,30.15,WSW,247,5.6,5.6,39,0.00,,,0.00,Rainwise IP-100,2013-09-06 20:36:00,
2013-09-06 16:41:00,73.1,47.0,30.15,WSW,247,4.7,7.0,39,0.00,,,0.00,Rainwise IP-100,2013-09-06 20:41:00,
2013-09-06 16:46:00,72.8,47.0,30.15,WSW,247,5.4,9.0,40,0.00,,,0.00,Rainwise IP-100,2013-09-06 20:46:00,
2013-09-06 16:51:00,72.6,47.0,30.15,WSW,247,2.6,8.0,41,0.00,,,0.00,Rainwise IP-100,2013-09-06 20:51:00,
2013-09-06 16:56:00,72.9,48.0,30.14,WSW,247,3.5,5.0,41,0.00,,,0.00,Rainwise IP-100,2013-09-06 20:56:00,
2013-09-06 17:01:00,73.3,49.0,30.14,SW,225,6.3,7.0,42,0.00,,,0.00,Rainwise IP-100,2013-09-06 21:01:00,
2013-09-06 17:06:00,72.7,48.0,30.14,WSW,247,5.6,7.0,42,0.00,,,0.00,Rainwise IP-100,2013-09-06 21:06:00,
2013-09-06 17:11:00,72.5,50.0,30.15,SSW,202,3.7,7.0,44,0.00,,,0.00,Rainwise IP-100,2013-09-06 21:11:00,
2013-09-06 17:16:00,72.2,50.0,30.14,SW,225,4.0,7.0,45,0.00,,,0.00,Rainwise IP-100,2013-09-06 21:16:00,
2013-09-06 17:21:00,71.9,50.0,30.14,WSW,247,5.8,8.0,46,0.00,,,0.00,Rainwise IP-100,2013-09-06 21:21:00,
2013-09-06 17:26:00,71.8,50.0,30.14,WSW,247,7.0,7.0,47,0.00,,,0.00,Rainwise IP-100,2013-09-06 21:26:00,
2013-09-06 17:31:00,71.8,50.0,30.14,WSW,247,7.0,7.0,47,0.00,,,0.00,Rainwise IP-100,2013-09-06 21:31:00,
2013-09-06 17:44:00,72.0,52.0,30.13,WSW,247,1.9,0.0,49,0.00,,,0.00,Rainwise IP-100,2013-09-06 21:44:00,
2013-09-06 17:49:00,72.0,52.0,30.13,WSW,247,1.9,1.9,49,0.00,,,0.00,Rainwise IP-100,2013-09-06 21:49:00,
2013-09-06 17:57:00,73.0,52.0,30.13,SW,225,2.1,2.1,48,0.00,,,0.00,Rainwise IP-100,2013-09-06 21:57:00,
2013-09-06 18:02:00,72.9,52.0,30.13,SW,225,5.6,5.6,48,0.00,,,0.00,Rainwise IP-100,2013-09-06 22:02:00,
2013-09-06 18:07:00,72.7,52.0,30.13,SSW,202,6.5,6.5,48,0.00,,,0.00,Rainwise IP-100,2013-09-06 22:07:00,
2013-09-06 18:12:00,73.0,52.0,30.13,SSW,202,5.8,6.0,48,0.00,,,0.00,Rainwise IP-100,2013-09-06 22:12:00,
2013-09-06 18:17:00,73.0,52.0,30.13,SSW,202,5.8,6.0,48,0.00,,,0.00,Rainwise IP-100,2013-09-06 22:17:00,
2013-09-06 18:22:00,72.8,52.0,30.13,South,180,3.0,5.0,48,0.00,,,0.00,Rainwise IP-100,2013-09-06 22:22:00,
2013-09-06 18:27:00,72.8,52.0,30.13,SSE,157,4.2,4.2,48,0.00,,,0.00,Rainwise IP-100,2013-09-06 22:27:00,
2013-09-06 18:32:00,72.8,51.0,30.13,SSW,202,2.1,4.0,47,0.00,,,0.00,Rainwise IP-100,2013-09-06 22:32:00,
2013-09-06 18:37:00,72.3,51.0,30.13,SSW,202,5.8,5.8,48,0.00,,,0.00,Rainwise IP-100,2013-09-06 22:37:00,
2013-09-06 18:42:00,72.3,51.0,30.13,SSW,202,5.8,5.8,48,0.00,,,0.00,Rainwise IP-100,2013-09-06 22:42:00,
2013-09-06 18:47:00,72.2,52.0,30.13,South,180,6.3,6.3,49,0.00,,,0.00,Rainwise IP-100,2013-09-06 22:47:00,
2013-09-06 18:52:00,72.4,52.0,30.11,South,180,7.0,8.0,49,0.00,,,0.00,Rainwise IP-100,2013-09-06 22:52:00,
2013-09-06 18:57:00,72.7,52.0,30.11,SSW,202,8.6,8.6,48,0.00,,,0.00,Rainwise IP-100,2013-09-06 22:57:00,
2013-09-06 19:02:00,72.8,52.0,30.12,SSW,202,6.5,8.0,48,0.00,,,0.00,Rainwise IP-100,2013-09-06 23:02:00,
2013-09-06 19:07:00,73.1,52.0,30.11,SSW,202,6.3,6.3,47,0.00,,,0.00,Rainwise IP-100,2013-09-06 23:07:00,
2013-09-06 19:12:00,73.3,52.0,30.11,SE,135,3.3,6.0,47,0.00,,,0.00,Rainwise IP-100,2013-09-06 23:12:00,
2013-09-06 19:17:00,73.5,53.0,30.11,SW,225,4.0,8.0,48,0.00,,,0.00,Rainwise IP-100,2013-09-06 23:17:00,
2013-09-06 19:22:00,73.5,53.0,30.11,SW,225,6.8,8.0,48,0.00,,,0.00,Rainwise IP-100,2013-09-06 23:22:00,
2013-09-06 19:27:00,73.6,53.0,30.11,SW,225,3.0,8.0,49,0.00,,,0.00,Rainwise IP-100,2013-09-06 23:27:00,
2013-09-06 19:32:00,73.7,54.0,30.10,South,180,3.7,6.0,51,0.00,,,0.00,Rainwise IP-100,2013-09-06 23:32:00,
2013-09-06 19:37:00,73.8,54.0,30.10,SSE,157,2.3,5.0,51,0.00,,,0.00,Rainwise IP-100,2013-09-06 23:37:00,
2013-09-06 19:42:00,73.7,55.0,30.10,SSW,202,5.6,5.6,52,0.00,,,0.00,Rainwise IP-100,2013-09-06 23:42:00,
2013-09-06 19:47:00,73.5,56.0,30.10,SE,135,1.4,5.0,54,0.00,,,0.00,Rainwise IP-100,2013-09-06 23:47:00,
2013-09-06 19:52:00,73.5,56.0,30.10,SSE,157,2.3,5.0,54,0.00,,,0.00,Rainwise IP-100,2013-09-06 23:52:00,
2013-09-06 19:57:00,73.5,56.0,30.10,SSE,157,2.8,6.0,55,0.00,,,0.00,Rainwise IP-100,2013-09-06 23:57:00,
2013-09-06 20:02:00,73.4,56.0,30.10,SE,135,5.6,6.0,55,0.00,,,0.00,Rainwise IP-100,2013-09-07 00:02:00,
2013-09-06 20:07:00,73.3,56.0,30.10,South,180,5.4,5.4,55,0.00,,,0.00,Rainwise IP-100,2013-09-07 00:07:00,
2013-09-06 20:12:00,72.9,56.0,30.10,SE,135,4.7,7.0,56,0.00,,,0.00,Rainwise IP-100,2013-09-07 00:12:00,
2013-09-06 20:17:00,72.6,56.0,30.09,SSE,157,4.7,7.0,57,0.00,,,0.00,Rainwise IP-100,2013-09-07 00:17:00,
2013-09-06 20:22:00,72.4,56.0,30.09,ESE,112,4.4,7.0,57,0.00,,,0.00,Rainwise IP-100,2013-09-07 00:22:00,
2013-09-06 20:27:00,72.2,56.0,30.09,SE,135,4.4,7.0,58,0.00,,,0.00,Rainwise IP-100,2013-09-07 00:27:00,
2013-09-06 20:32:00,72.0,57.0,30.10,ESE,112,6.5,8.0,59,0.00,,,0.00,Rainwise IP-100,2013-09-07 00:32:00,
2013-09-06 20:37:00,71.9,57.0,30.09,SSE,157,3.0,9.0,59,0.00,,,0.00,Rainwise IP-100,2013-09-07 00:37:00,
2013-09-06 20:42:00,71.8,57.0,30.09,ESE,112,6.1,7.0,60,0.00,,,0.00,Rainwise IP-100,2013-09-07 00:42:00,
2013-09-06 20:47:00,71.8,57.0,30.09,ESE,112,4.7,9.0,60,0.00,,,0.00,Rainwise IP-100,2013-09-07 00:47:00,
2013-09-06 20:52:00,71.7,57.0,30.09,ESE,112,4.4,8.0,61,0.00,,,0.00,Rainwise IP-100,2013-09-07 00:52:00,
2013-09-06 20:57:00,71.4,57.0,30.09,SE,135,6.3,9.0,61,0.00,,,0.00,Rainwise IP-100,2013-09-07 00:57:00,
2013-09-06 21:02:00,71.2,57.0,30.08,ESE,112,5.8,8.0,62,0.00,,,0.00,Rainwise IP-100,2013-09-07 01:02:00,
2013-09-06 21:07:00,71.2,57.0,30.09,SSE,157,4.9,9.0,62,0.00,,,0.00,Rainwise IP-100,2013-09-07 01:07:00,
2013-09-06 21:12:00,71.2,57.0,30.09,SE,135,6.8,9.0,62,0.00,,,0.00,Rainwise IP-100,2013-09-07 01:12:00,
2013-09-06 21:17:00,71.4,57.0,30.08,ESE,112,7.9,9.0,62,0.00,,,0.00,Rainwise IP-100,2013-09-07 01:17:00,
2013-09-06 21:22:00,71.6,57.0,30.09,SE,135,6.5,7.0,61,0.00,,,0.00,Rainwise IP-100,2013-09-07 01:22:00,
2013-09-06 21:27:00,71.7,57.0,30.09,SE,135,9.3,9.3,61,0.00,,,0.00,Rainwise IP-100,2013-09-07 01:27:00,
2013-09-06 21:32:00,71.8,57.0,30.09,SE,135,4.4,11.0,61,0.00,,,0.00,Rainwise IP-100,2013-09-07 01:32:00,
2013-09-06 21:37:00,71.7,57.0,30.09,ESE,112,5.1,7.0,61,0.00,,,0.00,Rainwise IP-100,2013-09-07 01:37:00,
2013-09-06 21:42:00,71.6,57.0,30.09,SE,135,6.8,8.0,61,0.00,,,0.00,Rainwise IP-100,2013-09-07 01:42:00,
2013-09-06 21:47:00,71.5,57.0,30.08,ESE,112,4.0,10.0,62,0.00,,,0.00,Rainwise IP-100,2013-09-07 01:47:00,
2013-09-06 21:51:00,71.4,57.0,30.09,SE,135,5.8,10.0,62,0.00,,,0.00,Rainwise IP-100,2013-09-07 01:51:00,
2013-09-06 21:56:00,71.1,57.0,30.08,ESE,112,9.1,9.1,63,0.00,,,0.00,Rainwise IP-100,2013-09-07 01:56:00,
2013-09-06 22:01:00,70.7,57.0,30.07,SE,135,6.8,12.0,64,0.00,,,0.00,Rainwise IP-100,2013-09-07 02:01:00,
2013-09-06 22:06:00,70.6,57.0,30.07,ESE,112,7.0,11.0,64,0.00,,,0.00,Rainwise IP-100,2013-09-07 02:06:00,
2013-09-06 22:11:00,70.7,57.0,30.07,SE,135,7.0,11.0,63,0.00,,,0.00,Rainwise IP-100,2013-09-07 02:11:00,
2013-09-06 22:16:00,70.9,57.0,30.07,ESE,112,6.8,12.0,62,0.00,,,0.00,Rainwise IP-100,2013-09-07 02:16:00,
2013-09-06 22:21:00,71.2,57.0,30.07,SE,135,7.2,11.0,62,0.00,,,0.00,Rainwise IP-100,2013-09-07 02:21:00,
2013-09-06 22:26:00,71.6,57.0,30.07,SSE,157,7.2,11.0,61,0.00,,,0.00,Rainwise IP-100,2013-09-07 02:26:00,
2013-09-06 22:31:00,71.7,57.0,30.07,ESE,112,5.4,11.0,60,0.00,,,0.00,Rainwise IP-100,2013-09-07 02:31:00,
2013-09-06 22:36:00,71.8,57.0,30.07,SSE,157,7.2,9.0,60,0.00,,,0.00,Rainwise IP-100,2013-09-07 02:36:00,
2013-09-06 22:41:00,71.6,57.0,30.07,ESE,112,5.8,12.0,60,0.00,,,0.00,Rainwise IP-100,2013-09-07 02:41:00,
2013-09-06 22:46:00,71.1,57.0,30.07,ESE,112,7.5,11.0,62,0.00,,,0.00,Rainwise IP-100,2013-09-07 02:46:00,
2013-09-06 22:51:00,70.2,57.0,30.07,ESE,112,8.9,10.0,64,0.00,,,0.00,Rainwise IP-100,2013-09-07 02:51:00,
2013-09-06 22:56:00,69.5,57.0,30.07,ESE,112,7.7,11.0,66,0.00,,,0.00,Rainwise IP-100,2013-09-07 02:56:00,
2013-09-06 23:01:00,69.3,57.0,30.07,SE,135,4.2,10.0,66,0.00,,,0.00,Rainwise IP-100,2013-09-07 03:01:00,
2013-09-06 23:06:00,69.4,57.0,30.07,SE,135,6.3,11.0,66,0.00,,,0.00,Rainwise IP-100,2013-09-07 03:06:00,
2013-09-06 23:11:00,69.6,57.0,30.06,ESE,112,8.4,14.0,65,0.00,,,0.00,Rainwise IP-100,2013-09-07 03:11:00,
2013-09-06 23:16:00,70.1,57.0,30.07,SE,135,5.4,13.0,64,0.00,,,0.00,Rainwise IP-100,2013-09-07 03:16:00,
2013-09-06 23:21:00,70.5,57.0,30.07,SSE,157,8.4,12.0,64,0.00,,,0.00,Rainwise IP-100,2013-09-07 03:21:00,
2013-09-06 23:26:00,70.6,57.0,30.06,ESE,112,8.9,12.0,64,0.00,,,0.00,Rainwise IP-100,2013-09-07 03:26:00,
2013-09-06 23:31:00,70.5,57.0,30.07,SE,135,4.2,12.0,64,0.00,,,0.00,Rainwise IP-100,2013-09-07 03:31:00,
2013-09-06 23:36:00,70.6,57.0,30.06,SE,135,9.3,11.0,64,0.00,,,0.00,Rainwise IP-100,2013-09-07 03:36:00,
2013-09-06 23:41:00,70.6,57.0,30.07,ESE,112,10.5,12.0,64,0.00,,,0.00,Rainwise IP-100,2013-09-07 03:41:00,
2013-09-06 23:46:00,70.7,57.0,30.06,SSE,157,7.5,12.0,64,0.00,,,0.00,Rainwise IP-100,2013-09-07 03:46:00,
2013-09-06 23:51:00,71.1,58.0,30.06,SSW,202,5.6,12.0,65,0.00,,,0.00,Rainwise IP-100,2013-09-07 03:51:00,
2013-09-06 23:56:00,71.5,59.0,30.06,ESE,112,9.3,13.0,65,0.00,,,0.00,Rainwise IP-100,2013-09-07 03:56:00,